GW6355 Weather Reports


time (UTC)temp
F
wind
direction
speed
knots
gust
knots
rain 1hr
in
rain 24hr
in
rain mn
in
humidity
%
barometer
mb
20260505041538 64 311 10.4 13.9 0.00 0.00 0.00 65 1004.4
20260505040040 65 310 10.4 14.8 0.00 0.00 0.00 61 1003.5
20260505034537 66 303 7.8 14.8 0.00 0.00 0.00 60 1003.5
20260505033049 67 244 6.1 9.6 0.00 0.00 0.00 57 1002.5
20260505031540 67 236 4.3 11.3 0.00 0.00 0.00 56 1002.6
20260505030039 68 195 5.2 10.4 0.00 0.00 0.00 55 1002.5
20260505024602 68 196 7.8 12.2 0.00 0.00 0.00 54 1002.5
20260505023040 68 229 6.1 10.4 0.00 0.00 0.00 55 1002.7
20260505021601 68 205 6.1 9.6 0.00 0.00 0.00 54 1002.7
20260505020047 69 216 6.1 11.3 0.00 0.00 0.00 52 1002.7
20260505014540 69 195 6.1 9.6 0.00 0.00 0.00 51 1002.4
20260505013038 70 193 7.0 10.4 0.00 0.00 0.00 50 1002.2
20260505011548 70 200 6.1 11.3 0.00 0.00 0.00 49 1002.2
20260505010039 70 234 5.2 11.3 0.00 0.00 0.00 49 1002.1
20260505004545 71 226 7.8 11.3 0.00 0.00 0.00 47 1002.1
20260505003039 72 206 7.0 12.2 0.00 0.00 0.00 47 1002.1
20260505001538 72 254 7.0 13.0 0.00 0.00 0.00 47 1002.1
20260505000040 73 174 11.3 16.5 0.00 0.00 0.00 46 1001.7
20260504234537 74 226 7.0 20.0 0.00 0.00 0.00 50 1001.7
20260504233055 73 235 8.7 19.1 0.00 0.00 0.00 51 1002.1
20260504231541 73 243 9.6 18.2 0.00 0.00 0.00 53 1002.3
20260504230043 72 228 9.6 17.4 0.00 0.00 0.00 55 1002.6
20260504224538 72 233 7.8 15.6 0.00 0.00 0.00 58 1002.8
20260504223040 72 201 10.4 19.1 0.00 0.00 0.00 55 1003.0
20260504221547 72 219 7.8 14.8 0.00 0.00 0.00 56 1003.1
20260504214542 74 249 12.2 20.9 0.00 0.00 0.00 48 1003.3
20260504213038 72 237 8.7 17.4 0.00 0.00 0.00 50 1003.5
20260504211537 73 207 8.7 26.9 0.00 0.00 0.00 47 1003.5
20260504210044 75 245 12.2 21.7 0.00 0.00 0.00 45 1003.4
20260504204557 75 242 13.9 20.9 0.00 0.00 0.00 41 1003.3
20260504203042 75 228 12.2 23.5 0.00 0.00 0.00 45 1003.2
20260504201539 76 241 10.4 20.0 0.00 0.00 0.00 45 1003.4
20260504200043 75 198 11.3 19.1 0.00 0.00 0.00 44 1003.4
20260504194541 75 223 11.3 19.1 0.00 0.16 0.00 44 1003.6
20260504193042 74 257 12.2 17.4 0.00 0.16 0.00 45 1003.9
20260504191541 75 269 10.4 28.7 0.00 0.16 0.00 44 1003.7
20260504190040 76 210 11.3 24.3 0.00 0.16 0.00 45 1003.9
20260504184539 75 271 11.3 25.2 0.00 0.16 0.00 46 1003.8
20260504183038 75 239 10.4 20.0 0.00 0.16 0.00 46 1003.9
20260504181542 75 225 10.4 19.1 0.00 0.16 0.00 47 1003.9
20260504180041 75 211 9.6 20.9 0.00 0.16 0.00 49 1004.0
20260504174540 74 232 13.0 19.1 0.00 0.16 0.00 48 1003.9
20260504173039 73 200 14.8 21.7 0.00 0.16 0.00 50 1003.9
20260504171539 73 210 13.9 23.5 0.00 0.16 0.00 50 1004.1
20260504081546 51 190 5.2 8.7 0.00 0.16 0.00 73 1007.3
20260504044538 52 204 3.5 8.7 0.00 0.16 0.00 70 1009.0
20260504043042 52 210 4.3 8.7 0.00 0.16 0.00 71 1009.2